Berlin, NH

4:32 AM EST on November 17, 2019 (GMT -0500)
Berlin Municipal

Weather History for KBML - October, 2019

Change the Weather History Date:

Sunday, October 20, 2019

  Actual Average Record
Temperature  
Mean Temperature 38 °F -  
Max Temperature 51 °F 50 °F 72 °F (2012)
Min Temperature 26 °F 26 °F 15 °F (2003)
Degree Days  
Heating Degree Days 27    
Moisture  
Dew Point 29 °F    
Average Humidity 86    
Maximum Humidity 93    
Minimum Humidity 56    
Precipitation  
Precipitation 0.05 in - - ()
Sea Level Pressure  
Sea Level Pressure 30.09 in    
Wind  
Wind Speed 0 mph (NNW)    
Max Wind Speed 5 mph    
Max Gust Speed -    
Visibility 4 miles    
Events Fog , Rain    
Averages and records for this station are not official NWS values.
T = Trace of Precipitation, MM = Missing Value Source: NWS Daily Summary

Daily Weather History Graph

Daily Weather History Graph

Search for Another Location

Airport or City:

Astronomy

Oct. 20, 2019 Rise Set
Actual Time 7:06 AM EDT 5:52 PM EDT
Civil Twilight 6:36 AM EDT 6:21 PM EDT
Nautical Twilight 6:02 AM EDT 6:55 PM EDT
Astronomical Twilight 5:28 AM EDT 7:29 PM EDT
Moon 10:48 PM EDT (10/20) 1:41 PM EDT (10/20)
Length of Visible Light 11h 45m
Length of Day
10h 46m
Waning Gibbous, 59% of the Moon is Illuminated
Oct 20
Waning Gibbous
Oct 21
Last Quarter
Oct 27
New
Nov 4
First Quarter
Nov 12
Full

Hourly Weather History & Observations

Time (EDT) Temp. Windchill Dew Point Humidity Pressure Visibility Wind Dir Wind Speed Gust Speed Precip Events Conditions
12:19 AM 27.0 °F - 24.1 °F 89% 30.05 in 10.0 mi Calm Calm - N/A   Partly Cloudy
12:30 AM 28.0 °F - 25.0 °F 88% 30.05 in 10.0 mi Calm Calm - N/A   Mostly Cloudy
12:45 AM 28.0 °F - 25.0 °F 88% 30.05 in 1.8 mi Calm Calm - N/A   Overcast
12:52 AM 27.0 °F - 24.1 °F 89% 30.08 in 0.2 mi Calm Calm - N/A Fog Light Freezing Fog
1:01 AM 28.0 °F - 25.0 °F 88% 30.04 in 1.0 mi Calm Calm - N/A   Mist
1:14 AM 27.0 °F - 25.0 °F 92% 30.04 in 0.5 mi Calm Calm - N/A Fog Light Freezing Fog
1:24 AM 27.0 °F - 25.0 °F 92% 30.04 in 0.2 mi Calm Calm - N/A Fog Light Freezing Fog
1:52 AM 28.0 °F - 25.0 °F 88% 30.09 in 0.2 mi Calm Calm - N/A Fog Light Freezing Fog
2:42 AM 27.0 °F - 25.0 °F 92% 30.06 in 0.8 mi Calm Calm - N/A   Mist
2:52 AM 28.0 °F - 25.0 °F 88% 30.10 in 0.2 mi Calm Calm - N/A Fog Light Freezing Fog
3:49 AM 26.6 °F - 24.8 °F 93% 30.07 in 0.2 mi Calm Calm - N/A Fog Light Freezing Fog
3:52 AM 27.0 °F - 25.0 °F 92% 30.11 in 0.2 mi Calm Calm - N/A Fog Light Freezing Fog
4:14 AM 27.0 °F - 24.1 °F 89% 30.07 in 0.2 mi Calm Calm - N/A Fog Light Freezing Fog
4:52 AM 27.0 °F - 24.1 °F 89% 30.11 in 0.2 mi Calm Calm - N/A Fog Light Freezing Fog
5:52 AM 27.0 °F - 24.1 °F 89% 30.12 in 0.2 mi Calm Calm - N/A Fog Light Freezing Fog
6:00 AM 27.0 °F - 24.1 °F 89% 30.08 in 1.0 mi Calm Calm - N/A   Mist
6:02 AM 27.0 °F - 24.1 °F 89% 30.08 in 2.0 mi Calm Calm - N/A   Overcast
6:09 AM 26.1 °F - 24.1 °F 92% 30.08 in 10.0 mi Calm Calm - N/A   Overcast
6:25 AM 27.0 °F - 23.0 °F 85% 30.08 in 1.5 mi Calm Calm - N/A   Overcast
6:28 AM 27.0 °F - 23.0 °F 85% 30.08 in 0.8 mi Calm Calm - N/A   Overcast
6:36 AM 27.0 °F - 24.1 °F 89% 30.08 in 0.5 mi Calm Calm - N/A Fog Light Freezing Fog
6:52 AM 27.0 °F - 24.1 °F 89% 30.12 in 0.5 mi Calm Calm - N/A Fog Light Freezing Fog
7:03 AM 27.0 °F - 24.1 °F 89% 30.07 in 0.2 mi Calm Calm - N/A Fog Light Freezing Fog
7:28 AM 27.0 °F - 24.1 °F 89% 30.08 in 1.0 mi Calm Calm - N/A   Overcast
7:31 AM 27.0 °F - 24.1 °F 89% 30.08 in 3.0 mi Calm Calm - N/A   Overcast
7:42 AM 28.0 °F - 25.0 °F 88% 30.09 in 1.5 mi Calm Calm - N/A   Overcast
7:44 AM 28.0 °F - 25.0 °F 88% 30.09 in 0.8 mi Calm Calm - N/A   Overcast
7:52 AM 28.0 °F - 25.0 °F 88% 30.14 in 0.5 mi Calm Calm - N/A Fog Light Freezing Fog
8:02 AM 28.0 °F - 26.1 °F 92% 30.09 in 0.2 mi Calm Calm - N/A Fog Light Freezing Fog
8:52 AM 30.9 °F 27.5 °F 28.0 °F 89% 30.15 in 1.5 mi NNE 3.5 mph - N/A   Overcast
9:50 AM 32.0 °F - 30.2 °F 93% 30.09 in 10.0 mi Calm Calm - N/A   Scattered Clouds
9:52 AM 32.0 °F - 30.0 °F 92% 30.14 in 10.0 mi Calm Calm - N/A   Partly Cloudy
10:29 AM 34.0 °F - 32.0 °F 92% 30.09 in 10.0 mi Calm Calm - N/A   Mostly Cloudy
10:52 AM 35.1 °F 32.2 °F 32.0 °F 89% 30.14 in 10.0 mi NNW 3.5 mph - N/A   Mostly Cloudy
11:05 AM 36.0 °F - 33.1 °F 89% 30.10 in 10.0 mi Calm Calm - N/A   Scattered Clouds
11:52 AM 37.0 °F - 34.0 °F 89% 30.14 in 10.0 mi Calm Calm - N/A   Clear
12:52 PM 44.1 °F - 36.0 °F 73% 30.10 in 10.0 mi Calm Calm - N/A   Clear
1:52 PM 48.9 °F - 34.0 °F 56% 30.09 in 10.0 mi Calm Calm - N/A   Clear
2:52 PM 50.0 °F - 35.1 °F 57% 30.08 in 10.0 mi NW 3.5 mph - N/A   Clear
3:52 PM 50.0 °F - 36.0 °F 59% 30.09 in 10.0 mi Calm Calm - N/A   Clear
4:52 PM 50.0 °F - 37.0 °F 61% 30.08 in 10.0 mi NNW 4.6 mph - N/A   Clear
5:52 PM 48.0 °F - 39.0 °F 71% 30.06 in 10.0 mi Calm Calm - N/A   Scattered Clouds
6:52 PM 46.0 °F - 39.0 °F 76% 30.08 in 10.0 mi Calm Calm - N/A   Overcast
7:52 PM 45.0 °F - 41.0 °F 86% 30.09 in 7.0 mi Calm Calm - 0.01 in Rain Light Rain
8:52 PM 44.1 °F 42.5 °F 41.0 °F 89% 30.09 in 8.0 mi Variable 3.5 mph - 0.04 in Rain Light Rain
9:52 PM 45.0 °F - 41.0 °F 86% 30.09 in 9.0 mi Calm Calm - 0.00 in   Overcast
10:52 PM 44.1 °F - 42.1 °F 93% 30.09 in 7.0 mi Calm Calm - N/A   Overcast
11:52 PM 44.1 °F - 42.1 °F 93% 30.08 in 6.0 mi Calm Calm - N/A   Overcast